• In Belgium
  • List of Countries
  • For 7 days
  • Water Temperature
  • Satellite Maps
  • Weather Map
  • Weather Widgets
  • user-avatar
    Login

    Hourly Weather Overijse

    Today, 24 September, Monday

    Time Temperature Precipitation Wind Pressure Humidity
    00:00 +7°C° 0 mm 2 mps 762 mmHg 90%
    01:00 +7°C° 0 mm 2 mps 762 mmHg 89%
    02:00 +7°C° 0 mm 2 mps 763 mmHg 88%
    03:00 +7°C° 0 mm 2 mps 764 mmHg 88%
    04:00 +7°C° 0 mm 2 mps 764 mmHg 88%
    05:00 +7°C° 0 mm 2 mps 765 mmHg 88%
    06:00 +7°C° 0 mm 2 mps 765 mmHg 88%
    07:00 +9°C° 0.1 mm 2 mps 766 mmHg 82%
    08:00 +11°C° 0.1 mm 3 mps 766 mmHg 75%
    09:00 +13°C° 0.1 mm 3 mps 767 mmHg 69%
    10:00 +13°C° 0.1 mm 3 mps 767 mmHg 66%
    11:00 +14°C° 0.1 mm 4 mps 767 mmHg 63%
    12:00 +14°C° 0.1 mm 4 mps 767 mmHg 60%
    13:00 +14°C° 0.1 mm 4 mps 767 mmHg 59%
    14:00 +14°C° 0.1 mm 4 mps 767 mmHg 58%
    15:00 +15°C° 0.1 mm 4 mps 767 mmHg 58%
    16:00 +13°C° 0 mm 4 mps 767 mmHg 63%
    17:00 +11°C° 0 mm 3 mps 767 mmHg 69%
    18:00 +10°C° 0 mm 2 mps 768 mmHg 75%
    19:00 +9°C° 0 mm 2 mps 768 mmHg 76%
    20:00 +8°C° 0 mm 2 mps 768 mmHg 78%
    21:00 +8°C° 0 mm 2 mps 769 mmHg 79%
    22:00 +8°C° 0 mm 1 mps 769 mmHg 81%
    23:00 +8°C° 0 mm 1 mps 769 mmHg 82%

    Tomorrow, 25 September, Tuesday

    Time Temperature Precipitation Wind Pressure Humidity
    00:00 +8°C° 0 mm 1 mps 769 mmHg 84%
    01:00 +7°C° 0 mm 1 mps 769 mmHg 85%
    02:00 +6°C° 0 mm 0 mps 769 mmHg 85%
    03:00 +6°C° 0 mm 0 mps 769 mmHg 86%
    04:00 +6°C° 0 mm 0 mps 769 mmHg 86%
    05:00 +6°C° 0 mm 0 mps 769 mmHg 87%
    06:00 +7°C° 0 mm 1 mps 769 mmHg 87%
    07:00 +9°C° 0 mm 1 mps 770 mmHg 79%
    08:00 +11°C° 0 mm 1 mps 770 mmHg 72%
    09:00 +13°C° 0 mm 1 mps 770 mmHg 64%
    10:00 +14°C° 0 mm 2 mps 770 mmHg 59%
    11:00 +15°C° 0 mm 2 mps 769 mmHg 54%
    12:00 +16°C° 0 mm 2 mps 769 mmHg 49%
    13:00 +16°C° 0 mm 2 mps 769 mmHg 48%
    14:00 +16°C° 0 mm 2 mps 768 mmHg 48%
    15:00 +16°C° 0 mm 2 mps 768 mmHg 47%
    16:00 +15°C° 0 mm 2 mps 768 mmHg 52%
    17:00 +13°C° 0 mm 2 mps 768 mmHg 57%
    18:00 +12°C° 0 mm 2 mps 768 mmHg 63%
    19:00 +10°C° 0 mm 2 mps 768 mmHg 65%
    20:00 +9°C° 0 mm 2 mps 768 mmHg 67%
    21:00 +9°C° 0 mm 2 mps 768 mmHg 69%
    22:00 +8°C° 0 mm 2 mps 768 mmHg 70%
    23:00 +8°C° 0 mm 2 mps 768 mmHg 71%

    Day after tomorrow, 26 September, Wednesday

    Time Temperature Precipitation Wind Pressure Humidity
    00:00 +8°C° 0 mm 2 mps 768 mmHg 72%
    01:00 +7°C° 0 mm 2 mps 767 mmHg 71%
    02:00 +7°C° 0 mm 2 mps 767 mmHg 71%
    03:00 +7°C° 0 mm 2 mps 767 mmHg 70%
    04:00 +7°C° 0 mm 2 mps 767 mmHg 69%
    05:00 +7°C° 0 mm 2 mps 767 mmHg 68%
    06:00 +6°C° 0 mm 2 mps 767 mmHg 67%
    07:00 +9°C° 0 mm 2 mps 767 mmHg 62%
    08:00 +12°C° 0 mm 1 mps 767 mmHg 56%
    09:00 +14°C° 0 mm 1 mps 767 mmHg 50%
    10:00 +16°C° 0 mm 1 mps 767 mmHg 46%
    11:00 +18°C° 0 mm 1 mps 766 mmHg 43%
    12:00 +20°C° 0 mm 1 mps 766 mmHg 39%
    13:00 +20°C° 0 mm 1 mps 766 mmHg 39%
    14:00 +20°C° 0 mm 1 mps 765 mmHg 39%
    15:00 +20°C° 0 mm 1 mps 765 mmHg 39%
    16:00 +19°C° 0 mm 1 mps 765 mmHg 44%
    17:00 +16°C° 0 mm 1 mps 765 mmHg 50%
    18:00 +14°C° 0 mm 1 mps 765 mmHg 55%
    19:00 +13°C° 0 mm 1 mps 765 mmHg 56%
    20:00 +13°C° 0 mm 1 mps 765 mmHg 57%
    21:00 +12°C° 0 mm 1 mps 765 mmHg 58%
    22:00 +12°C° 0 mm 1 mps 765 mmHg 59%
    23:00 +12°C° 0 mm 1 mps 765 mmHg 60%

    27 September, Thursday

    Time Temperature Precipitation Wind Pressure Humidity
    00:00 +11°C° 0 mm 1 mps 765 mmHg 62%
    01:00 +11°C° 0 mm 1 mps 764 mmHg 63%
    02:00 +11°C° 0 mm 1 mps 764 mmHg 63%
    03:00 +10°C° 0 mm 1 mps 764 mmHg 64%
    04:00 +10°C° 0 mm 1 mps 764 mmHg 65%
    05:00 +9°C° 0 mm 2 mps 763 mmHg 65%
    06:00 +9°C° 0 mm 2 mps 763 mmHg 66%
    07:00 +12°C° 0 mm 2 mps 763 mmHg 61%
    08:00 +14°C° 0 mm 2 mps 763 mmHg 56%
    09:00 +16°C° 0 mm 2 mps 763 mmHg 52%
    10:00 +18°C° 0 mm 2 mps 762 mmHg 48%
    11:00 +19°C° 0 mm 2 mps 762 mmHg 45%
    12:00 +21°C° 0 mm 3 mps 762 mmHg 42%
    13:00 +21°C° 0 mm 3 mps 761 mmHg 43%
    14:00 +21°C° 0 mm 2 mps 761 mmHg 43%
    15:00 +21°C° 0 mm 2 mps 760 mmHg 44%
    16:00 +19°C° 0 mm 2 mps 760 mmHg 50%
    17:00 +18°C° 0 mm 1 mps 760 mmHg 55%
    18:00 +15°C° 0 mm 1 mps 760 mmHg 61%
    19:00 +14°C° 0 mm 1 mps 760 mmHg 63%
    20:00 +13°C° 0 mm 1 mps 760 mmHg 65%
    21:00 +13°C° 0 mm 1 mps 760 mmHg 67%
    22:00 +12°C° 0 mm 1 mps 760 mmHg 68%
    23:00 +12°C° 0 mm 1 mps 759 mmHg 69%

    28 September, Friday

    Time Temperature Precipitation Wind Pressure Humidity
    00:00 +11°C° 0 mm 1 mps 759 mmHg 70%
    01:00 +10°C° 0 mm 0 mps 759 mmHg 72%
    02:00 +10°C° 0 mm 0 mps 759 mmHg 73%
    03:00 +9°C° 0 mm 0 mps 759 mmHg 74%
    04:00 +9°C° 0 mm 0 mps 759 mmHg 75%
    05:00 +10°C° 0 mm 1 mps 759 mmHg 76%
    06:00 +10°C° 0 mm 1 mps 759 mmHg 77%
    07:00 +12°C° 0 mm 1 mps 759 mmHg 72%
    08:00 +14°C° 0 mm 2 mps 759 mmHg 67%
    09:00 +16°C° 0 mm 2 mps 759 mmHg 62%
    10:00 +17°C° 0 mm 3 mps 759 mmHg 61%
    11:00 +18°C° 0 mm 4 mps 759 mmHg 59%
    12:00 +19°C° 0 mm 4 mps 759 mmHg 58%
    13:00 +17°C° 0 mm 5 mps 759 mmHg 61%
    14:00 +17°C° 0 mm 6 mps 759 mmHg 64%
    15:00 +16°C° 0 mm 6 mps 759 mmHg 67%
    16:00 +15°C° 0 mm 6 mps 760 mmHg 70%
    17:00 +13°C° 0 mm 5 mps 760 mmHg 73%
    18:00 +12°C° 0 mm 4 mps 760 mmHg 77%
    19:00 +11°C° 0 mm 4 mps 761 mmHg 76%
    20:00 +11°C° 0 mm 4 mps 761 mmHg 75%
    21:00 +10°C° 0 mm 4 mps 762 mmHg 75%
    22:00 +10°C° 0 mm 4 mps 762 mmHg 75%
    23:00 +8°C° 0 mm 4 mps 762 mmHg 76%

    29 September, Saturday

    Time Temperature Precipitation Wind Pressure Humidity
    00:00 +8°C° 0 mm 4 mps 762 mmHg 76%
    01:00 +7°C° 0 mm 4 mps 762 mmHg 78%
    02:00 +7°C° 0 mm 4 mps 762 mmHg 80%
    03:00 +6°C° 0 mm 4 mps 762 mmHg 81%
    04:00 +6°C° 0 mm 4 mps 762 mmHg 83%
    05:00 +6°C° 0 mm 4 mps 762 mmHg 84%
    06:00 +5°C° 0 mm 4 mps 762 mmHg 86%
    07:00 +7°C° 0 mm 4 mps 762 mmHg 78%
    08:00 +9°C° 0 mm 5 mps 762 mmHg 71%
    09:00 +12°C° 0 mm 5 mps 761 mmHg 63%
    10:00 +13°C° 0 mm 5 mps 761 mmHg 59%
    11:00 +15°C° 0 mm 5 mps 760 mmHg 55%
    12:00 +16°C° 0 mm 5 mps 760 mmHg 51%
    13:00 +16°C° 0 mm 5 mps 759 mmHg 51%
    14:00 +17°C° 0 mm 5 mps 759 mmHg 50%
    15:00 +17°C° 0 mm 5 mps 758 mmHg 49%
    16:00 +15°C° 0 mm 4 mps 758 mmHg 54%
    17:00 +13°C° 0 mm 4 mps 758 mmHg 58%
    18:00 +12°C° 0 mm 3 mps 758 mmHg 63%
    19:00 +11°C° 0 mm 3 mps 758 mmHg 63%
    20:00 +10°C° 0 mm 3 mps 758 mmHg 64%
    21:00 +10°C° 0 mm 3 mps 757 mmHg 65%
    22:00 +9°C° 0 mm 2 mps 757 mmHg 66%
    23:00 +9°C° 0 mm 2 mps 757 mmHg 66%
    Show more